Powrót do katalogu

FLOCK 4G 11

AktywnyNaukaSSO
NORAD 62629·PAYLOAD·🇺🇸 United States

Wystrzelony Jan 14, 2025 z Vandenberg Space Force Base

Loading…

Następne Przeloty (najbliższe 24 godziny)

TLE

ŚwieżeSource: CelesTrak SupGP

Epoka: Sep 14, 2026, 12:45 UTC

1 62629C 25009W   26257.53136574  .00015796  00000+0  52861-3 0  2576
2 62629  97.3872 338.5141 0002823  36.9898 131.1677 15.31010698    17

Śledź FLOCK 4G 11 w czasie rzeczywistym z AllMySat

Download on the App Store